GW0234 Weather Reports


Display with metric or nautical units.
time (UTC)temp
F
wind
direction
speed
MPH
gust
MPH
rain 1hr
in
rain 24hr
in
rain mn
in
humidity
%
barometer
mb
20260508113107 40 0 0.0 0.0 0.00 0.01 0.01 88 1010.8
20260508111557 39 0 0.0 0.0 0.00 0.01 0.01 88 1010.8
20260508104556 38 0 0.0 0.0 0.00 0.01 0.01 87 1010.6
20260508103059 39 0 0.0 0.0 0.00 0.01 0.01 86 1010.5
20260508101558 39 0 0.0 0.0 0.00 0.01 0.01 86 1010.5
20260508100109 40 0 0.0 0.0 0.00 0.01 0.01 87 1010.5
20260508094606 40 0 0.0 0.0 0.00 0.01 0.01 87 1010.7
20260508093056 39 0 0.0 0.0 0.01 0.01 0.01 87 1010.8
20260508091605 39 0 0.0 0.0 0.01 0.01 0.01 87 1011.1
20260508090113 38 0 0.0 0.0 0.01 0.01 0.01 87 1011.1
20260508084554 38 0 0.0 0.0 0.01 0.01 0.01 87 1011.3
20260508083056 38 0 0.0 1.0 0.00 0.00 0.00 86 1011.1
20260508081606 37 0 0.0 1.0 0.00 0.00 0.00 87 1011.0
20260508080055 37 0 0.0 2.0 0.00 0.00 0.00 86 1011.0
20260508074600 37 104 0.0 1.0 0.00 0.00 0.00 86 1010.8
20260508073112 36 0 0.0 1.0 0.00 0.00 0.00 86 1011.0
20260508071607 36 0 0.0 1.0 0.00 0.00 0.00 86 1011.0
20260508064622 35 0 0.0 1.0 0.00 0.00 0.00 86 1011.1
20260508063112 35 0 0.0 1.0 0.00 0.00 0.00 86 1011.3
20260508061610 34 0 0.0 1.0 0.00 0.00 0.00 85 1011.3
20260508060111 35 0 0.0 1.0 0.00 0.00 0.00 85 1011.3
20260508054559 35 104 0.0 2.0 0.00 0.00 0.00 85 1011.4
20260508053100 35 0 0.0 1.0 0.00 0.00 0.00 85 1011.6
20260508051614 34 104 0.0 1.0 0.00 0.00 0.00 84 1011.6
20260508050104 34 0 0.0 1.0 0.00 0.00 0.00 84 1011.7
20260508044557 34 0 0.0 0.0 0.00 0.00 0.00 82 1011.7
20260508043055 34 0 0.0 0.0 0.00 0.00 0.00 79 1011.5
20260508041602 34 0 0.0 0.0 0.00 0.00 0.00 78 1011.5
20260508040105 35 0 0.0 0.0 0.00 0.00 0.00 78 1011.4
20260508034601 35 0 0.0 0.0 0.00 0.00 0.00 79 1011.3
20260508033101 36 0 0.0 1.0 0.00 0.00 0.00 78 1011.4
20260508031559 37 0 0.0 0.0 0.00 0.00 0.00 76 1011.4
20260508030108 37 0 0.0 0.0 0.00 0.00 0.00 76 1011.5
20260508024619 38 0 0.0 0.0 0.00 0.00 0.00 75 1011.6
20260508023102 39 0 0.0 1.0 0.00 0.00 0.00 75 1011.5
20260508021605 40 0 0.0 0.0 0.00 0.00 0.00 75 1011.4
20260508020111 41 0 0.0 1.0 0.00 0.00 0.00 74 1011.4
20260508014559 42 0 0.0 1.0 0.00 0.00 0.00 74 1011.3
20260508013059 43 0 0.0 1.0 0.00 0.00 0.00 73 1011.0
20260508011605 44 0 0.0 2.0 0.00 0.00 0.00 72 1010.8
20260508010057 45 0 0.0 3.0 0.00 0.00 0.00 72 1010.7
20260508004602 45 0 0.0 2.0 0.00 0.00 0.00 70 1010.5
20260508003058 46 0 0.0 2.0 0.00 0.00 0.00 71 1010.3
20260508001558 47 0 0.0 3.0 0.00 0.00 0.00 71 1010.1
20260508000057 49 0 0.0 2.0 0.00 0.00 0.00 69 1010.0
20260507234559 50 162 1.0 7.0 0.00 0.00 0.00 64 1009.8
20260507233100 50 117 2.0 9.0 0.00 0.00 0.00 62 1009.5
20260507231559 52 162 5.0 12.0 0.00 0.00 0.00 58 1009.5
20260507230110 54 0 1.0 9.0 0.00 0.00 0.00 54 1009.3
20260507224601 54 138 2.0 6.0 0.00 0.00 0.00 53 1008.8
20260507223057 54 153 2.0 7.0 0.00 0.00 0.00 53 1008.8
20260507221603 54 220 1.0 10.0 0.00 0.00 0.00 53 1008.7
20260507220101 55 184 3.0 12.0 0.00 0.00 0.00 50 1008.5
20260507214555 56 0 4.0 9.0 0.00 0.00 0.00 49 1008.3
20260507213056 56 171 1.0 10.0 0.00 0.00 0.00 46 1008.2
20260507211602 56 100 1.0 10.0 0.00 0.00 0.00 46 1008.1
20260507210108 57 272 3.0 11.0 0.00 0.00 0.00 46 1008.0
20260507204558 57 127 2.0 7.0 0.00 0.00 0.00 45 1008.1
20260507203125 57 52 3.0 8.0 0.00 0.00 0.00 46 1008.0
20260507201557 56 312 2.0 9.0 0.00 0.00 0.00 47 1008.2
20260507200101 56 34 1.0 7.0 0.00 0.00 0.00 50 1008.3
20260507194618 56 185 1.0 8.0 0.00 0.00 0.00 49 1008.4
20260507193103 56 240 4.0 10.0 0.00 0.00 0.00 50 1008.4
20260507191601 56 81 1.0 7.0 0.00 0.00 0.00 49 1008.6
20260507184558 57 83 2.0 11.0 0.00 0.00 0.00 47 1008.7
20260507183100 57 360 2.0 10.0 0.00 0.00 0.00 47 1008.8
20260507181559 57 339 4.0 10.0 0.00 0.00 0.00 51 1008.8
20260507180055 57 104 2.0 9.0 0.00 0.00 0.00 47 1009.0
20260507174604 57 343 1.0 10.0 0.00 0.00 0.00 47 1008.9
20260507173129 58 217 2.0 9.0 0.00 0.00 0.00 47 1009.1
20260507171558 56 290 1.0 11.0 0.00 0.00 0.00 50 1009.3
20260507170058 57 119 3.0 9.0 0.00 0.00 0.00 47 1009.5
20260507164557 57 355 2.0 9.0 0.00 0.00 0.00 47 1009.5
20260507163102 56 155 2.0 11.0 0.00 0.00 0.00 52 1009.7
20260507161612 56 294 2.0 13.0 0.00 0.00 0.00 55 1009.7
20260507154558 55 319 1.0 6.0 0.00 0.00 0.00 53 1010.1
20260507153059 55 360 3.0 12.0 0.00 0.00 0.00 55 1010.2
20260507151558 54 325 3.0 9.0 0.00 0.00 0.00 56 1010.3
20260507150057 54 20 2.0 10.0 0.00 0.00 0.00 54 1010.4
20260507144612 54 0 4.0 11.0 0.00 0.00 0.00 57 1010.7
20260507143103 54 325 2.0 8.0 0.00 0.00 0.00 58 1010.9
20260507141601 53 0 2.0 7.0 0.00 0.00 0.00 61 1011.0
20260507140056 53 360 2.0 8.0 0.00 0.00 0.00 57 1011.2
20260507134557 52 105 3.0 9.0 0.00 0.02 0.00 60 1011.2
20260507133139 51 111 3.0 8.0 0.00 0.02 0.00 61 1011.2
20260507131554 50 12 3.0 8.0 0.00 0.02 0.00 66 1011.3
20260507124601 45 0 0.0 3.0 0.00 0.05 0.00 89 1011.4
20260507123054 43 0 0.0 1.0 0.00 0.05 0.00 93 1011.6
20260507121555 39 0 0.0 1.0 0.00 0.05 0.00 92 1011.5
20260507120055 37 0 0.0 2.0 0.00 0.05 0.00 92 1011.4
20260507114609 35 58 1.0 2.0 0.00 0.08 0.00 90 1011.6